Date String (YYYY-MM-DD hh:mm:ss) UTC,Instrument flags,absolute air pressure of the measurement (hPa),sample flow rate (lpm),inlet stack bypass flow (lpm),air temperature of the measurement (°C),ambient temperature measured by the external sensor (°C),aerosol sample conditioner tube jacket temperature (°C),OPC LED temperature (°C),internal box temperature (°C),relative humidity of the measurement (%),span deviation,mass concentration of particles derived from Lorenz-Mie calculation of OPC scattering (μg/m³),mass concentration of particles derived from Lorenz-Mie calculation of OPC scattering (μg/m³),mass concentration of particles derived from Lorenz-Mie calculation of OPC scattering (μg/m³)
DateTimeUTC,F1_M11,P_M11,Q1_M11,Q2_M11,T1_M11,T2_M11,T3_M11,T4_M11,T5_M11,U1_M11,ZSPAN_M11,X2_M11,X0_M11,X1_M11
2023-09-26 00:00:00,SystemResetWarning,0835.1,5.00,000.00,028.0,024.7,000.0,036.3,029.7,10.1,0000.0,0004.04,0011.65,0003.24
2023-09-26 00:01:00,SystemResetWarning,0835.0,5.01,000.00,028.0,024.1,000.0,036.2,029.6,10.3,0000.0,0004.01,0011.59,0003.24
2023-09-26 00:02:00,SystemResetWarning,0835.0,4.99,000.00,027.9,024.3,000.0,036.2,029.4,10.5,0000.0,0004.02,0011.46,0003.25
2023-09-26 00:03:00,SystemResetWarning,0835.0,5.00,000.00,027.8,024.7,000.0,036.2,029.4,10.8,0000.0,0003.98,0010.95,0003.25
2023-09-26 00:04:00,SystemResetWarning,0835.1,5.01,000.00,027.8,025.1,000.0,036.2,029.4,10.9,0000.0,0003.94,0010.95,0003.24
2023-09-26 00:05:00,SystemResetWarning,0835.1,4.99,000.00,027.8,025.6,000.0,036.2,029.5,11.0,0000.0,0003.90,0011.12,0003.24
2023-09-26 00:06:00,SystemResetWarning,0835.1,5.00,000.00,027.9,026.0,000.0,036.2,029.6,10.9,0000.0,0003.90,0012.00,0003.23
2023-09-26 00:07:00,SystemResetWarning,0835.2,5.00,000.00,027.9,026.3,000.0,036.2,029.7,11.0,0000.0,0003.90,0011.56,0003.23
2023-09-26 00:08:00,SystemResetWarning,0835.2,5.00,000.00,028.0,026.6,000.0,036.2,029.8,10.9,0000.0,0003.92,0011.50,0003.23
2023-09-26 00:09:00,SystemResetWarning,0835.2,5.01,000.00,028.0,026.9,000.0,036.3,029.8,10.9,0000.0,0003.96,0012.34,0003.23
2023-09-26 00:10:00,SystemResetWarning,0835.2,5.01,000.00,028.1,027.0,000.0,036.3,029.9,10.9,0000.0,0003.99,0012.14,0003.23
2023-09-26 00:11:00,SystemResetWarning,0835.3,4.98,000.00,028.1,025.9,000.0,036.3,029.9,11.0,0000.0,0004.00,0012.15,0003.24
2023-09-26 00:12:00,SystemResetWarning,0835.2,5.00,000.00,028.0,024.1,000.0,036.3,029.7,10.7,0000.0,0003.99,0012.22,0003.24
2023-09-26 00:13:00,SystemResetWarning,0835.2,5.02,000.00,028.0,024.0,000.0,036.2,029.6,10.6,0000.0,0003.97,0012.14,0003.24
2023-09-26 00:14:00,SystemResetWarning,0835.2,4.99,000.00,027.9,024.3,000.0,036.2,029.4,10.5,0000.0,0003.98,0012.25,0003.24
2023-09-26 00:15:00,SystemResetWarning,0835.2,5.00,000.00,027.8,024.7,000.0,036.2,029.3,10.5,0000.0,0004.01,0012.79,0003.25
2023-09-26 00:16:00,SystemResetWarning,0835.2,5.01,000.00,027.8,025.1,000.0,036.2,029.4,10.4,0000.0,0004.03,0012.43,0003.25
2023-09-26 00:17:00,SystemResetWarning,0835.3,4.98,000.00,027.8,025.6,000.0,036.2,029.5,10.5,0000.0,0004.10,0012.35,0003.26
2023-09-26 00:18:00,SystemResetWarning,0835.3,4.99,000.00,027.9,026.0,000.0,036.2,029.6,10.5,0000.0,0004.07,0012.57,0003.26
2023-09-26 00:19:00,SystemResetWarning,0835.3,5.00,000.00,027.9,026.3,000.0,036.2,029.7,10.4,0000.0,0004.06,0013.46,0003.26
2023-09-26 00:20:00,SystemResetWarning,0835.3,5.00,000.00,027.9,026.6,000.0,036.3,029.8,10.5,0000.0,0004.03,0012.70,0003.27
2023-09-26 00:21:00,SystemResetWarning,0835.3,5.01,000.00,028.0,026.8,000.0,036.3,029.8,10.5,0000.0,0004.01,0013.54,0003.26
2023-09-26 00:22:00,SystemResetWarning,0835.3,5.00,000.00,028.1,027.1,000.0,036.3,029.9,10.5,0000.0,0004.02,0014.20,0003.26
2023-09-26 00:23:00,SystemResetWarning,0835.3,5.00,000.00,028.1,027.2,000.0,036.3,030.0,10.4,0000.0,0004.03,0014.07,0003.26
2023-09-26 00:24:00,SystemResetWarning,0835.3,4.99,000.00,028.2,026.6,000.0,036.3,030.0,10.3,0000.0,0004.05,0014.73,0003.26
2023-09-26 00:25:00,SystemResetWarning,0835.3,5.00,000.00,028.1,024.7,000.0,036.3,029.8,10.2,0000.0,0004.05,0015.67,0003.26
2023-09-26 00:26:00,SystemResetWarning,0835.3,5.02,000.00,028.0,024.0,000.0,036.3,029.7,10.4,0000.0,0004.05,0015.59,0003.26
2023-09-26 00:27:00,SystemResetWarning,0835.3,4.99,000.00,028.0,024.2,000.0,036.3,029.5,10.4,0000.0,0004.04,0016.93,0003.25
2023-09-26 00:28:00,SystemResetWarning,0835.3,4.99,000.00,027.9,024.6,000.0,036.3,029.4,10.4,0000.0,0004.03,0017.69,0003.25
2023-09-26 00:29:00,SystemResetWarning,0835.3,5.00,000.00,027.9,025.0,000.0,036.3,029.4,10.5,0000.0,0004.05,0017.23,0003.24
2023-09-26 00:30:00,SystemResetWarning,0835.3,5.00,000.00,027.9,025.5,000.0,036.3,029.5,10.5,0000.0,0004.08,0016.62,0003.23
2023-09-26 00:31:00,SystemResetWarning,0835.3,5.00,000.00,027.9,025.9,000.0,036.3,029.6,10.4,0000.0,0004.13,0015.77,0003.23
2023-09-26 00:32:00,SystemResetWarning,0835.3,5.00,000.00,027.9,026.2,000.0,036.3,029.7,10.4,0000.0,0004.16,0015.09,0003.23
2023-09-26 00:33:00,SystemResetWarning,0835.2,5.00,000.00,028.0,026.5,000.0,036.3,029.8,10.4,0000.0,0004.11,0015.59,0003.22
2023-09-26 00:34:00,SystemResetWarning,0835.2,5.00,000.00,028.0,026.8,000.0,036.3,029.8,10.3,0000.0,0004.07,0015.55,0003.22
2023-09-26 00:35:00,SystemResetWarning,0835.2,5.00,000.00,028.1,027.0,000.0,036.3,029.9,10.2,0000.0,0004.08,0015.74,0003.23
2023-09-26 00:36:00,SystemResetWarning,0835.2,4.99,000.00,028.2,027.2,000.0,036.4,030.0,10.0,0000.0,0004.10,0015.39,0003.23
2023-09-26 00:37:00,SystemResetWarning,0835.2,5.00,000.00,028.2,026.2,000.0,036.4,030.0,10.3,0000.0,0004.16,0015.22,0003.23
2023-09-26 00:38:00,SystemResetWarning,0835.3,5.00,000.00,028.1,024.4,000.0,036.3,029.7,10.4,0000.0,0004.20,0014.15,0003.22
2023-09-26 00:39:00,SystemResetWarning,0835.3,5.00,000.00,028.0,023.9,000.0,036.3,029.6,10.7,0000.0,0004.26,0013.69,0003.23
2023-09-26 00:40:00,SystemResetWarning,0835.3,5.01,000.00,027.9,024.2,000.0,036.3,029.4,11.2,0000.0,0004.28,0014.37,0003.23
2023-09-26 00:41:00,SystemResetWarning,0835.3,5.00,000.00,027.8,024.6,000.0,036.2,029.3,11.2,0000.0,0004.27,0014.64,0003.23
2023-09-26 00:42:00,SystemResetWarning,0835.3,4.99,000.00,027.8,025.0,000.0,036.2,029.4,11.3,0000.0,0004.20,0014.39,0003.23
2023-09-26 00:43:00,SystemResetWarning,0835.3,5.00,000.00,027.8,025.5,000.0,036.2,029.5,11.5,0000.0,0004.11,0014.12,0003.21
2023-09-26 00:44:00,SystemResetWarning,0835.3,5.00,000.00,027.9,025.8,000.0,036.3,029.5,11.1,0000.0,0004.15,0013.01,0003.21
2023-09-26 00:45:00,SystemResetWarning,0835.3,5.00,000.00,027.9,026.2,000.0,036.3,029.6,11.3,0000.0,0004.20,0013.15,0003.21
2023-09-26 00:46:00,SystemResetWarning,0835.3,5.01,000.00,027.9,026.5,000.0,036.3,029.7,11.3,0000.0,0004.19,0012.75,0003.20
2023-09-26 00:47:00,SystemResetWarning,0835.3,4.99,000.00,028.0,026.7,000.0,036.3,029.8,11.3,0000.0,0004.17,0012.36,0003.20
2023-09-26 00:48:00,SystemResetWarning,0835.3,5.00,000.00,028.0,026.9,000.0,036.3,029.9,11.6,0000.0,0004.20,0012.88,0003.19
2023-09-26 00:49:00,SystemResetWarning,0835.3,5.00,000.00,028.1,027.1,000.0,036.3,029.9,11.6,0000.0,0004.19,0012.73,0003.20
2023-09-26 00:50:00,SystemResetWarning,0835.3,5.00,000.00,028.2,027.2,000.0,036.4,030.0,11.2,0000.0,0004.11,0012.78,0003.20
2023-09-26 00:51:00,SystemResetWarning,0835.3,4.98,000.00,028.2,025.8,000.0,036.4,029.9,10.8,0000.0,0004.10,0012.57,0003.21
2023-09-26 00:52:00,SystemResetWarning,0835.3,5.01,000.00,028.1,024.0,000.0,036.3,029.7,10.6,0000.0,0004.13,0012.05,0003.23
2023-09-26 00:53:00,SystemResetWarning,0835.2,5.01,000.00,028.0,023.7,000.0,036.3,029.5,10.6,0000.0,0004.18,0012.06,0003.23
2023-09-26 00:54:00,SystemResetWarning,0835.2,5.01,000.00,027.9,024.0,000.0,036.3,029.3,10.7,0000.0,0004.23,0012.24,0003.24
2023-09-26 00:55:00,SystemResetWarning,0835.2,5.00,000.00,027.8,024.5,000.0,036.2,029.3,10.7,0000.0,0004.22,0012.64,0003.25
2023-09-26 00:56:00,SystemResetWarning,0835.2,5.00,000.00,027.8,024.9,000.0,036.2,029.3,10.7,0000.0,0004.18,0013.12,0003.25
2023-09-26 00:57:00,SystemResetWarning,0835.2,5.00,000.00,027.8,025.3,000.0,036.2,029.4,10.7,0000.0,0004.19,0012.81,0003.25
2023-09-26 00:58:00,SystemResetWarning,0835.2,5.00,000.00,027.8,025.7,000.0,036.2,029.5,10.7,0000.0,0004.21,0012.69,0003.25
2023-09-26 00:59:00,SystemResetWarning,0835.2,4.99,000.00,027.8,026.1,000.0,036.2,029.5,10.6,0000.0,0004.21,0012.02,0003.25
